Tracking 22994 objects as of 8-May-2021
HD Live streaming from Space Station
objects crossing your sky now

COSMOS 1174

Track COSMOS 1174 now!
10-day predictions
COSMOS 1174 is classified as:


NORAD ID: 11765
Int'l Code: 1980-030A
Perigee: 376.7 km
Apogee: 1,152.9 km
Inclination: 66.1 °
Period: 100.0 minutes
Semi major axis: 7135 km
RCS: 4.5129 m2 (large)
Launch date: April 18, 1980
Source: Commonwealth of Independent States (former USSR) (CIS)
Launch site: TYURATAM MISSILE AND SPACE COMPLEX (TTMTR)
aabbcc
Your satellite tracking list
Your tracking list is empty




NASA's NSSDC Master Catalog

Two Line Element Set (TLE):
1 11765U 80030A   21127.93569225  .00000438  00000-0  32207-4 0  9998
2 11765  66.0869   1.0958 0543902 172.3223 188.6654 14.40263441108795
Source of the keplerian elements: AFSPC